FW5836 Weather Reports


Display with metric or nautical units.
time (UTC)temp
F
wind
direction
speed
MPH
gust
MPH
rain 1hr
in
rain 24hr
in
rain mn
in
humidity
%
barometer
mb
20260505003827 66 135 1.0 2.0 0.00 0.00 0.00 63 1010.1
20260505002828 66 1.0 2.0 0.00 0.00 0.00 63 1010.1
20260505001829 66 135 0.0 2.0 0.00 0.00 0.00 62 1010.1
20260505000831 67 239 1.0 2.0 0.00 0.00 0.00 61 1010.1
20260504235832 68 151 2.0 5.0 0.00 0.00 0.00 59 1010.1
20260504234835 68 113 3.0 7.0 0.00 0.00 0.00 60 1010.0
20260504233816 68 180 1.0 4.0 0.00 0.00 0.00 59 1010.0
20260504232817 68 157 2.0 3.0 0.00 0.00 0.00 58 1010.1
20260504231818 69 161 2.0 3.0 0.00 0.00 0.00 57 1010.1
20260504230818 70 166 3.0 5.0 0.00 0.00 0.00 56 1010.1
20260504225819 70 0.0 1.0 0.00 0.00 0.00 55 1010.0
20260504224820 70 0.0 3.0 0.00 0.00 0.00 54 1010.1
20260504223822 70 164 3.0 5.0 0.00 0.00 0.00 54 1010.1
20260504222838 71 124 2.0 4.0 0.00 0.00 0.00 53 1010.0
20260504221825 71 152 5.0 7.0 0.00 0.00 0.00 53 1010.0
20260504220846 71 113 1.0 2.0 0.00 0.00 0.00 53 1010.1
20260504215848 71 128 2.0 6.0 0.00 0.00 0.00 53 1010.2
20260504214829 71 134 3.0 5.0 0.00 0.00 0.00 51 1010.2
20260504213830 72 194 2.0 4.0 0.00 0.00 0.00 51 1010.2
20260504212832 72 113 1.0 3.0 0.00 0.00 0.00 51 1010.1
20260504211815 72 180 2.0 6.0 0.00 0.00 0.00 50 1010.2
20260504210816 72 175 4.0 6.0 0.00 0.00 0.00 49 1010.2
20260504205837 73 60 1.0 2.0 0.00 0.00 0.00 50 1010.3
20260504204818 73 174 3.0 5.0 0.00 0.00 0.00 48 1010.4
20260504203815 73 185 4.0 6.0 0.00 0.00 0.00 48 1010.4
20260504202836 74 158 0.0 1.0 0.00 0.00 0.00 49 1010.5
20260504201817 74 165 2.0 4.0 0.00 0.00 0.00 47 1010.7
20260504200819 74 180 0.0 2.0 0.00 0.00 0.00 48 1010.9
20260504195840 74 101 1.0 2.0 0.00 0.00 0.00 49 1011.1
20260504194841 74 195 3.0 4.0 0.00 0.00 0.00 48 1011.3
20260504193822 73 135 2.0 3.0 0.00 0.00 0.00 48 1011.3
20260504192824 73 104 4.0 5.0 0.00 0.00 0.00 47 1011.4
20260504191825 73 203 2.0 6.0 0.00 0.00 0.00 48 1011.7
20260504190825 74 168 3.0 6.0 0.00 0.00 0.00 48 1011.8
20260504185827 74 146 2.0 4.0 0.00 0.00 0.00 49 1012.0
20260504184821 73 153 3.0 5.0 0.00 0.00 0.00 49 1012.1
20260504183827 73 169 2.0 3.0 0.00 0.00 0.00 49 1012.1
20260504182828 73 172 3.0 8.0 0.00 0.00 0.00 48 1012.0
20260504181829 73 112 4.0 5.0 0.00 0.00 0.00 47 1012.2
20260504180851 74 158 2.0 5.0 0.00 0.00 0.00 49 1012.4
20260504175832 73 143 3.0 5.0 0.00 0.00 0.00 48 1012.5
20260504174815 73 163 3.0 5.0 0.00 0.00 0.00 47 1012.7
20260504173836 73 198 2.0 4.0 0.00 0.00 0.00 50 1012.7
20260504172817 72 199 2.0 5.0 0.00 0.00 0.00 50 1012.8
20260504171819 72 191 4.0 7.0 0.00 0.00 0.00 49 1012.8
20260504170819 72 180 1.0 2.0 0.00 0.00 0.00 50 1013.2
20260504150829 66 169 1.0 3.0 0.00 0.00 0.00 56 1014.5
20260504140829 62 135 1.0 3.0 0.00 0.00 0.00 64 1014.6
20260504130818 58 13 1.0 2.0 0.00 0.00 0.00 70 1015.1
20260504081821 40 0.0 0.0 0.00 0.00 0.00 99 1015.8
20260504080842 40 0.0 0.0 0.00 0.00 0.00 99 1015.8
20260504045831 41 0.0 0.0 0.00 0.00 0.00 96 1015.9
20260504044832 41 0.0 0.0 0.00 0.00 0.00 96 1015.9
20260504043819 41 0.0 0.0 0.00 0.00 0.00 93 1015.9
20260504042840 41 0.0 0.0 0.00 0.00 0.00 93 1015.8
20260504041821 41 0.0 0.0 0.00 0.00 0.00 92 1015.6
20260504040823 41 0.0 0.0 0.00 0.00 0.00 91 1015.6
20260504035823 42 0.0 0.0 0.00 0.00 0.00 90 1015.5
20260504034825 42 0.0 0.0 0.00 0.00 0.00 90 1015.3
20260504033826 42 0.0 0.0 0.00 0.00 0.00 90 1015.3
20260504032827 43 0.0 0.0 0.00 0.00 0.00 89 1015.3
20260504031822 43 0.0 0.0 0.00 0.00 0.00 90 1015.3
20260504030818 43 0.0 0.0 0.00 0.00 0.00 87 1015.3
20260504025831 44 0.0 0.0 0.00 0.00 0.00 89 1015.3
20260504024833 44 0.0 0.0 0.00 0.00 0.00 86 1015.1
20260504023830 45 0.0 0.0 0.00 0.00 0.00 84 1015.1
20260504022831 45 0.0 0.0 0.00 0.00 0.00 84 1015.1
20260504021827 45 0.0 0.0 0.00 0.00 0.00 83 1015.3
20260504020828 46 0.0 0.0 0.00 0.00 0.00 80 1015.1
20260504015829 47 0.0 0.0 0.00 0.00 0.00 78 1015.1
20260504014830 47 0.0 0.0 0.00 0.00 0.00 75 1015.0
20260504013831 48 0.0 0.0 0.00 0.00 0.00 75 1015.0
20260504012815 48 0.0 0.0 0.00 0.00 0.00 73 1014.9
20260504011817 48 0.0 0.0 0.00 0.00 0.00 69 1014.8
20260504010818 49 0.0 0.0 0.00 0.00 0.00 66 1014.6
20260504005819 50 0.0 0.0 0.00 0.00 0.00 66 1014.6
20260504004820 51 0.0 0.0 0.00 0.00 0.00 63 1014.5